Time,TemperatureF,DewpointF,PressureIn,WindDirection,WindDirectionDegrees,WindSpeedMPH,WindSpeedGustMPH,Humidity,HourlyPrecipIn,Conditions,Clouds,dailyrainin,SoftwareType,DateUTC
2013-08-03 00:10:00,58.6,57.0,30.19,NNW,337,0.0,0.0,93,0.00,,,0.01,weatherlink.com 1.10,2013-08-03 04:10:00,
2013-08-03 00:25:00,58.0,56.0,30.19,NNW,337,0.0,0.0,94,0.00,,,0.01,weatherlink.com 1.10,2013-08-03 04:25:00,
2013-08-03 00:40:00,57.4,56.0,30.20,NNW,337,0.0,0.0,94,0.00,,,0.01,weatherlink.com 1.10,2013-08-03 04:40:00,
2013-08-03 00:55:00,57.1,56.0,30.19,NNW,337,0.0,0.0,95,0.00,,,0.01,weatherlink.com 1.10,2013-08-03 04:55:00,
2013-08-03 01:10:00,56.8,55.0,30.18,NNW,337,0.0,0.0,95,0.00,,,0.01,weatherlink.com 1.10,2013-08-03 05:10:00,
2013-08-03 01:25:00,56.8,56.0,30.18,NNW,337,0.0,0.0,96,0.00,,,0.01,weatherlink.com 1.10,2013-08-03 05:25:00,
2013-08-03 01:40:00,57.1,56.0,30.18,NNW,337,0.0,0.0,96,0.00,,,0.01,weatherlink.com 1.10,2013-08-03 05:40:00,
2013-08-03 01:55:00,57.5,56.0,30.19,NNW,337,0.0,0.0,96,0.00,,,0.01,weatherlink.com 1.10,2013-08-03 05:55:00,
2013-08-03 02:10:00,57.7,57.0,30.19,NNW,337,0.0,0.0,97,0.00,,,0.01,weatherlink.com 1.10,2013-08-03 06:10:00,
2013-08-03 02:25:00,57.9,57.0,30.18,NNW,337,0.0,0.0,97,0.00,,,0.01,weatherlink.com 1.10,2013-08-03 06:25:00,
2013-08-03 02:40:00,58.0,57.0,30.18,NNW,337,0.0,0.0,96,0.00,,,0.01,weatherlink.com 1.10,2013-08-03 06:40:00,
2013-08-03 02:55:00,57.7,57.0,30.18,NNW,337,0.0,0.0,96,0.00,,,0.01,weatherlink.com 1.10,2013-08-03 06:55:00,
2013-08-03 03:10:00,57.5,56.0,30.18,NNW,337,0.0,0.0,96,0.00,,,0.01,weatherlink.com 1.10,2013-08-03 07:10:00,
2013-08-03 03:25:00,57.7,57.0,30.18,NNW,337,0.0,0.0,97,0.00,,,0.00,weatherlink.com 1.10,2013-08-03 07:25:00,
2013-08-03 03:40:00,58.1,57.0,30.18,NNW,337,0.0,0.0,97,0.00,,,0.00,weatherlink.com 1.10,2013-08-03 07:40:00,
2013-08-03 03:55:00,58.4,58.0,30.19,NNW,337,0.0,0.0,97,0.00,,,0.00,weatherlink.com 1.10,2013-08-03 07:55:00,
2013-08-03 04:10:00,58.7,58.0,30.19,NNW,337,0.0,0.0,97,0.00,,,0.00,weatherlink.com 1.10,2013-08-03 08:10:00,
2013-08-03 04:25:00,58.8,58.0,30.19,NNW,337,0.0,0.0,97,0.00,,,0.00,weatherlink.com 1.10,2013-08-03 08:25:00,
2013-08-03 04:41:00,58.9,58.0,30.18,NNW,337,0.0,0.0,97,0.00,,,0.00,weatherlink.com 1.10,2013-08-03 08:41:00,
2013-08-03 04:56:00,59.0,58.0,30.18,NNW,337,0.0,0.0,97,0.00,,,0.00,weatherlink.com 1.10,2013-08-03 08:56:00,
2013-08-03 05:10:00,59.0,58.0,30.17,NNW,337,0.0,0.0,97,0.00,,,0.00,weatherlink.com 1.10,2013-08-03 09:10:00,
2013-08-03 05:26:00,59.1,58.0,30.17,NNW,337,0.0,0.0,97,0.00,,,0.00,weatherlink.com 1.10,2013-08-03 09:26:00,
2013-08-03 05:40:00,59.1,58.0,30.17,NNW,337,0.0,0.0,97,0.00,,,0.00,weatherlink.com 1.10,2013-08-03 09:40:00,
2013-08-03 05:56:00,59.2,58.0,30.17,NNW,337,0.0,0.0,97,0.00,,,0.00,weatherlink.com 1.10,2013-08-03 09:56:00,
2013-08-03 06:11:00,59.5,58.0,30.17,NNW,337,0.0,0.0,96,0.00,,,0.00,weatherlink.com 1.10,2013-08-03 10:11:00,
2013-08-03 06:26:00,59.8,58.0,30.18,NNW,337,0.0,0.0,95,0.00,,,0.00,weatherlink.com 1.10,2013-08-03 10:26:00,
2013-08-03 06:41:00,59.9,59.0,30.17,NNW,337,0.0,0.0,95,0.00,,,0.00,weatherlink.com 1.10,2013-08-03 10:41:00,
2013-08-03 06:56:00,59.9,59.0,30.17,NNW,337,0.0,0.0,95,0.00,,,0.00,weatherlink.com 1.10,2013-08-03 10:56:00,
2013-08-03 07:11:00,60.0,59.0,30.17,NNW,337,0.0,0.0,95,0.00,,,0.00,weatherlink.com 1.10,2013-08-03 11:11:00,
2013-08-03 07:26:00,60.4,59.0,30.17,NNW,337,0.0,0.0,95,0.00,,,0.00,weatherlink.com 1.10,2013-08-03 11:26:00,
2013-08-03 07:41:00,61.2,60.0,30.17,NNW,337,0.0,0.0,94,0.00,,,0.00,weatherlink.com 1.10,2013-08-03 11:41:00,
2013-08-03 07:56:00,62.2,60.0,30.17,NNW,337,0.0,1.0,91,0.00,,,0.00,weatherlink.com 1.10,2013-08-03 11:56:00,
2013-08-03 08:11:00,63.5,60.0,30.18,NW,307,1.0,3.0,87,0.00,,,0.00,weatherlink.com 1.10,2013-08-03 12:11:00,
2013-08-03 08:26:00,64.2,60.0,30.17,NW,325,0.0,3.0,85,0.00,,,0.00,weatherlink.com 1.10,2013-08-03 12:26:00,
2013-08-03 08:41:00,64.7,60.0,30.16,NNW,333,0.0,1.0,85,0.00,,,0.00,weatherlink.com 1.10,2013-08-03 12:41:00,
2013-08-03 08:56:00,65.1,60.0,30.16,NNW,333,0.0,1.0,84,0.00,,,0.00,weatherlink.com 1.10,2013-08-03 12:56:00,
2013-08-03 09:11:00,65.3,60.0,30.17,SW,217,1.0,2.0,83,0.00,,,0.00,weatherlink.com 1.10,2013-08-03 13:11:00,
2013-08-03 09:26:00,66.4,61.0,30.17,North,355,1.0,6.0,83,0.00,,,0.00,weatherlink.com 1.10,2013-08-03 13:26:00,
2013-08-03 09:41:00,67.7,61.0,30.17,ESE,112,0.0,6.0,79,0.00,,,0.00,weatherlink.com 1.10,2013-08-03 13:41:00,
2013-08-03 10:11:00,69.3,60.0,30.16,NNE,32,3.0,8.0,73,0.00,,,0.00,weatherlink.com 1.10,2013-08-03 14:11:00,
2013-08-03 10:26:00,70.2,61.0,30.16,SE,130,2.0,8.0,72,0.00,,,0.00,weatherlink.com 1.10,2013-08-03 14:26:00,
2013-08-03 10:41:00,70.6,60.0,30.16,West,275,0.0,7.0,70,0.00,,,0.00,weatherlink.com 1.10,2013-08-03 14:41:00,
2013-08-03 10:56:00,70.7,60.0,30.15,NE,38,1.0,6.0,70,0.00,,,0.00,weatherlink.com 1.10,2013-08-03 14:56:00,
2013-08-03 11:11:00,71.0,62.0,30.15,ESE,115,0.0,6.0,72,0.00,,,0.00,weatherlink.com 1.10,2013-08-03 15:11:00,
2013-08-03 11:26:00,71.4,62.0,30.16,NE,44,1.0,7.0,73,0.00,,,0.00,weatherlink.com 1.10,2013-08-03 15:26:00,
2013-08-03 11:42:00,71.8,62.0,30.15,ESE,117,9.0,14.0,71,0.00,,,0.00,weatherlink.com 1.10,2013-08-03 15:42:00,
2013-08-03 11:56:00,71.9,62.0,30.15,North,360,1.0,9.0,71,0.00,,,0.00,weatherlink.com 1.10,2013-08-03 15:56:00,
2013-08-03 12:11:00,72.1,62.0,30.16,NNW,341,4.0,8.0,71,0.00,,,0.00,weatherlink.com 1.10,2013-08-03 16:11:00,
2013-08-03 12:26:00,73.0,62.0,30.15,WSW,244,2.0,8.0,68,0.00,,,0.00,weatherlink.com 1.10,2013-08-03 16:26:00,
2013-08-03 12:42:00,73.7,62.0,30.15,WNW,301,0.0,6.0,68,0.00,,,0.00,weatherlink.com 1.10,2013-08-03 16:42:00,
2013-08-03 12:57:00,73.7,63.0,30.16,North,5,1.0,6.0,69,0.00,,,0.00,weatherlink.com 1.10,2013-08-03 16:57:00,
2013-08-03 13:12:00,73.3,61.0,30.15,NE,54,0.0,6.0,66,0.00,,,0.00,weatherlink.com 1.10,2013-08-03 17:12:00,
2013-08-03 13:27:00,73.2,61.0,30.15,NNW,336,1.0,7.0,66,0.00,,,0.00,weatherlink.com 1.10,2013-08-03 17:27:00,
2013-08-03 13:41:00,73.4,60.0,30.15,North,5,2.0,9.0,63,0.00,,,0.00,weatherlink.com 1.10,2013-08-03 17:41:00,
2013-08-03 13:57:00,73.3,60.0,30.15,East,91,2.0,9.0,64,0.00,,,0.00,weatherlink.com 1.10,2013-08-03 17:57:00,
2013-08-03 14:12:00,74.1,62.0,30.15,NNE,24,0.0,10.0,65,0.00,,,0.00,weatherlink.com 1.10,2013-08-03 18:12:00,
2013-08-03 14:27:00,74.5,61.0,30.14,NW,321,0.0,9.0,64,0.00,,,0.00,weatherlink.com 1.10,2013-08-03 18:27:00,
2013-08-03 14:42:00,74.7,62.0,30.14,West,259,0.0,5.0,64,0.00,,,0.00,weatherlink.com 1.10,2013-08-03 18:42:00,
2013-08-03 14:57:00,73.1,62.0,30.14,WNW,302,0.0,6.0,68,0.00,,,0.00,weatherlink.com 1.10,2013-08-03 18:57:00,
2013-08-03 15:12:00,72.6,61.0,30.14,ENE,60,0.0,4.0,68,0.00,,,0.00,weatherlink.com 1.10,2013-08-03 19:12:00,
2013-08-03 15:27:00,72.6,63.0,30.14,South,180,0.0,3.0,71,0.00,,,0.00,weatherlink.com 1.10,2013-08-03 19:27:00,
2013-08-03 15:42:00,72.8,63.0,30.14,WNW,300,0.0,5.0,71,0.00,,,0.00,weatherlink.com 1.10,2013-08-03 19:42:00,
2013-08-03 15:57:00,71.8,62.0,30.14,West,281,0.0,3.0,71,0.00,,,0.00,weatherlink.com 1.10,2013-08-03 19:57:00,
2013-08-03 16:12:00,71.5,62.0,30.14,NNE,22,0.0,2.0,73,0.00,,,0.00,weatherlink.com 1.10,2013-08-03 20:12:00,
2013-08-03 16:27:00,72.2,63.0,30.14,NW,304,0.0,4.0,72,0.00,,,0.00,weatherlink.com 1.10,2013-08-03 20:27:00,
2013-08-03 16:42:00,71.9,63.0,30.14,West,273,0.0,5.0,73,0.00,,,0.00,weatherlink.com 1.10,2013-08-03 20:42:00,
2013-08-03 16:57:00,72.1,63.0,30.13,East,92,1.0,4.0,74,0.00,,,0.00,weatherlink.com 1.10,2013-08-03 20:57:00,
2013-08-03 17:12:00,72.4,63.0,30.13,ENE,57,5.0,5.0,73,0.00,,,0.00,weatherlink.com 1.10,2013-08-03 21:12:00,
2013-08-03 17:27:00,72.7,63.0,30.13,NW,313,1.0,6.0,72,0.00,,,0.00,weatherlink.com 1.10,2013-08-03 21:27:00,
2013-08-03 17:42:00,72.7,64.0,30.13,SW,226,0.0,5.0,73,0.00,,,0.00,weatherlink.com 1.10,2013-08-03 21:42:00,
2013-08-03 17:57:00,72.1,63.0,30.13,NE,42,0.0,5.0,73,0.00,,,0.00,weatherlink.com 1.10,2013-08-03 21:57:00,
2013-08-03 18:12:00,71.7,63.0,30.12,NE,35,0.0,3.0,74,0.00,,,0.00,weatherlink.com 1.10,2013-08-03 22:12:00,
2013-08-03 18:27:00,71.7,63.0,30.12,NNW,327,0.0,2.0,75,0.00,,,0.00,weatherlink.com 1.10,2013-08-03 22:27:00,
2013-08-03 18:42:00,71.2,64.0,30.12,NNW,327,0.0,0.0,77,0.00,,,0.00,weatherlink.com 1.10,2013-08-03 22:42:00,
2013-08-03 18:57:00,70.8,63.0,30.12,NNW,327,0.0,0.0,77,0.00,,,0.00,weatherlink.com 1.10,2013-08-03 22:57:00,
2013-08-03 19:12:00,70.4,64.0,30.12,NNW,329,0.0,2.0,79,0.00,,,0.00,weatherlink.com 1.10,2013-08-03 23:12:00,
2013-08-03 19:27:00,70.2,64.0,30.12,NNW,329,0.0,0.0,80,0.00,,,0.00,weatherlink.com 1.10,2013-08-03 23:27:00,
2013-08-03 19:42:00,69.8,64.0,30.12,NNW,329,0.0,0.0,81,0.00,,,0.00,weatherlink.com 1.10,2013-08-03 23:42:00,
2013-08-03 19:57:00,69.3,64.0,30.12,WSW,255,0.0,0.0,82,0.00,,,0.00,weatherlink.com 1.10,2013-08-03 23:57:00,
2013-08-03 20:12:00,69.0,64.0,30.12,WSW,255,0.0,0.0,83,0.00,,,0.00,weatherlink.com 1.10,2013-08-04 00:12:00,
2013-08-03 20:27:00,68.1,64.0,30.12,NE,46,0.0,4.0,87,0.01,,,0.01,weatherlink.com 1.10,2013-08-04 00:27:00,
2013-08-03 20:42:00,66.9,64.0,30.12,SSE,165,0.0,0.0,89,0.01,,,0.01,weatherlink.com 1.10,2013-08-04 00:42:00,
2013-08-03 20:57:00,66.1,64.0,30.12,SSE,165,0.0,0.0,91,0.01,,,0.01,weatherlink.com 1.10,2013-08-04 00:57:00,
2013-08-03 21:12:00,65.6,63.0,30.13,SSE,165,0.0,0.0,92,0.01,,,0.01,weatherlink.com 1.10,2013-08-04 01:12:00,
2013-08-03 21:27:00,65.4,63.0,30.13,SSE,165,0.0,0.0,93,0.00,,,0.01,weatherlink.com 1.10,2013-08-04 01:27:00,
2013-08-03 21:42:00,65.4,63.0,30.13,SSE,165,0.0,0.0,93,0.00,,,0.01,weatherlink.com 1.10,2013-08-04 01:42:00,
2013-08-03 21:57:00,65.3,63.0,30.14,SSE,165,0.0,0.0,93,0.00,,,0.01,weatherlink.com 1.10,2013-08-04 01:57:00,
2013-08-03 22:12:00,65.0,63.0,30.14,SSE,165,0.0,0.0,93,0.00,,,0.01,weatherlink.com 1.10,2013-08-04 02:12:00,
2013-08-03 22:27:00,65.0,63.0,30.14,SSE,165,0.0,0.0,94,0.00,,,0.01,weatherlink.com 1.10,2013-08-04 02:27:00,
2013-08-03 22:42:00,64.8,63.0,30.13,SSE,165,0.0,0.0,94,0.00,,,0.01,weatherlink.com 1.10,2013-08-04 02:42:00,
2013-08-03 22:57:00,64.3,63.0,30.13,SSE,165,0.0,0.0,95,0.00,,,0.01,weatherlink.com 1.10,2013-08-04 02:57:00,
2013-08-03 23:12:00,63.8,62.0,30.13,SSE,165,0.0,0.0,95,0.00,,,0.01,weatherlink.com 1.10,2013-08-04 03:12:00,
2013-08-03 23:27:00,63.8,63.0,30.13,SSE,165,0.0,0.0,96,0.00,,,0.01,weatherlink.com 1.10,2013-08-04 03:27:00,
2013-08-03 23:42:00,63.9,63.0,30.13,SSE,165,0.0,0.0,96,0.00,,,0.01,weatherlink.com 1.10,2013-08-04 03:42:00,
2013-08-03 23:57:00,63.9,63.0,30.13,SSE,165,0.0,0.0,96,0.00,,,0.01,weatherlink.com 1.10,2013-08-04 03:57:00,